Regional Weather Roundup
Issued by NWS Upton, NY

Current Version | Previous Version | Graphics & Text | Print | Product List | Glossary Off
Versions: 1 2 3 4 5 6 7 8 9 10 11 12 13 14 15 16 17 18 19 20 21 22 23 24 25 26 27 28 29 30 31 32 33 34 35 36 37 38 39 40 41 42 43 44 45 46 47 48 49 50
386 ASUS41 KOKX 292208 RWROKX REGIONAL WEATHER ROUNDUP NATIONAL WEATHER SERVICE NEW YORK NY 600 PM EDT WED MAR 29 2017 NOTE: "FAIR" INDICATES FEW OR NO CLOUDS BELOW 12,000 FEET WITH NO SIGNIFICANT WEATHER AND/OR OBSTRUCTIONS TO VISIBILITY. NYZ071-072-176-178-NJZ106-104-292300- NEW YORK CITY METRO AREA CITY SKY/WX TMP DP RH WIND PRES REMARKS Central Park SUNNY 56 26 31 VRB5G18 30.10R Wall St Helipt CLEAR 59 27 29 VRB5 30.09R LaGuardia APRT SUNNY 56 27 32 NW17 30.07R Kennedy INTL MOSUNNY 58 28 32 NW18G26 30.08R Breezy Point N/A 54 N/A N/A N16G22 N/A Newark/Liberty MOSUNNY 57 25 29 NW21G28 30.08R Teterboro SUNNY 55 26 32 N14G23 30.08R $$ NYZ177-179-078>081-292300- LONG ISLAND NEW YORK CITY SKY/WX TMP DP RH WIND PRES REMARKS Jones Beach N/A 54 N/A N/A N16G23 N/A Matinecock PT N/A 52 N/A N/A NW22 N/A Farmingdale MOSUNNY 56 31 38 N16 30.06R MacArthur/ISP MOSUNNY 53 30 41 N14G25 30.05R Shirley SUNNY 52 31 44 N12G18 30.07R Westhampton SUNNY 51 29 42 N16G24 30.07R East Hampton N/A 49 31 48 NW9G17 30.05R Montauk N/A 46 39 76 CALM 30.06R $$ NYZ052-065-067-292300- HUDSON VALLEY CITY SKY/WX TMP DP RH WIND PRES REMARKS White Plains MOSUNNY 52 26 36 NW20 30.08R Newburgh SUNNY 50 27 40 N14G23 30.11R Montgomery SUNNY 51 23 33 NW14G25 30.10R Poughkeepsie MOSUNNY 50 24 36 N16G23 30.10R Albany PTSUNNY 46 22 38 N21G26 30.16R $$ NJZ001-105-106-008-010-013-015-019>022-104-292300- NEW JERSEY CITY SKY/WX TMP DP RH WIND PRES REMARKS Newark/Liberty MOSUNNY 57 25 29 NW21G28 30.08R Teterboro SUNNY 55 26 32 N14G23 30.08R Caldwell SUNNY 54 24 31 N12G17 30.11R Somerville SUNNY 56 25 30 N13G18 30.09R Linden N/A 56 26 30 N15G21 30.09R Sussex SUNNY 51 24 34 N13G21 30.12R Andover N/A 51 23 33 N15G21 30.12R Trenton SUNNY 57 29 34 N16G23 30.09R Millville SUNNY 61 33 35 N10 30.08R Atlantic City SUNNY 54 40 59 S9 30.07R Wrightstown SUNNY 59 29 32 NW14 30.05R Toms River SUNNY 59 32 36 NW10 30.07R Belmar SUNNY 58 28 32 NW17 30.07R $$ PAZ047>061-062-071-292300- EASTERN PENNSYLVANIA CITY SKY/WX TMP DP RH WIND PRES REMARKS Philadelphia SUNNY 60 29 30 N15G26 30.10R Allentown SUNNY 55 27 34 N16G22 30.12R Scranton SUNNY 51 28 41 NW17G25 30.15R $$ CTZ002-004>006-009-010-012-RIZ004-006-007-MAZ004-011-015-292300- SOUTHERN NEW ENGLAND IN CT CITY SKY/WX TMP DP RH WIND PRES REMARKS Bradley INTL MOSUNNY 47 26 44 N18G25 30.10R Hartford CLOUDY 48 28 46 N12G28 30.10R Danbury SUNNY 49 26 41 NW12G20 30.10R Wtrbury/Oxford MOSUNNY 46 23 39 N14G23 30.09R Bridgeport SUNNY 53 25 33 NW17G29 30.08R Meriden MOSUNNY 50 27 40 NW15G25 30.09R New Haven MOSUNNY 51 28 41 N14G21 30.07R Chester NOT AVBL Groton MOSUNNY 51 27 39 NW17G25 30.04R Wilimantic CLOUDY 47 28 47 N15G25 30.08R IN RI CITY SKY/WX TMP DP RH WIND PRES REMARKS Providence PTSUNNY 47 25 42 N22G33 30.06R Block Island CLOUDY 44 38 79 SW7 30.04R Westerly CLOUDY 53 29 39 N14G21 30.04R IN MA CITY SKY/WX TMP DP RH WIND PRES REMARKS Boston CLOUDY 43 24 47 NW21G28 30.07R Worcester CLOUDY 39 23 52 NW15G26 30.06R WCI 31 Westfield CLOUDY 45 25 45 N16G24 30.10R Provincetown CLOUDY 40 37 89 NW7 30.04R Nantucket CLOUDY 42 34 73 N10 30.01R $$ ANZ330-335-338-340-345-350-353-355-292300- COASTAL MARINE OBSERVATIONS STATION/POSITION TIME SKY/WX TEMP WIND PRES VSBY WAVE AIR SEA DIR/SP/G HT/PER (UTC) (F) (DEG/KT/KT) (MB) (MI) (FT/S) NY HARB ENTRANCE 2050 50 45 300/ 6/ 6 1017.4 2/ 9 20 S FIRE ISLAND 2150 45 43 250/ 4/ 4 1017.6 3/10 GREAT SOUTH BAY NOT AVBL 23 SSW MONTAUK P 2050 45 44 1017.2 2/10 15 E BARNEGAT LI 2130 45 N/A 3/ 9 HUDSON CANYON 2050 45 44 270/ 2/ 2 1017.9 5/ 6 KINGS POINT 2124 51 41 1017.8 EXECUTION ROCKS NOT AVBL CENTRAL LI SOUND 2115 46 340/ 16/ 19 N/A 2/ 3 EASTERN LI SOUND NOT AVBL ROBBINS REEF 2124 55 340/ 18/ 24 1018.2 $$ >>>>>>>>>>>>>>>>>>>>>>>>>>>> KEY <<<<<<<<<<<<<<<<<<<<<<<<<<< > < > SKY/WX - Sky Condition/Present Weather < > TMP - Temperature in Fahrenheit < > DP - Dew Point in Fahrenheit < > RH - Relative Humidity in Percent < > WIND - Direction (from) and Speed in MPH < > PRES - Mean Sea Level Pressure (inches of Hg) < > WCI - Wind Chill Index < > VSB - VISIBILITY IN MILES < > HX - HEAT INDEX < > TC - TEMPERATURE IN CELSIUS < > VRB - VARIABLE WIND DIRECTION < > < >>>>>>>>>>>>>>>>>>>>>>>>>>>> KEY <<<<<<<<<<<<<<<<<<<<<<<<<<<

USA.gov is the U.S. government's official web portal to all federal, state and local government web resources and services.